sat.trackr.live / text

‹ back to catalog

STARLINK-33671

NORAD 63320 · 2025-057P

PAYLOAD ACTIVE UNKNOWN

§ Identity

Operator
Country
US
Launch date
2025-03-18
Launch site
AFETR
Launch vehicle
Mass (kg)
RCS (m²)

Purposes: comms

External: N2YO · Heavens-Above · Gunter

§ Orbital elements

Epoch: 2026-05-24T21:16:11.268192Z

Period
94.27 min
Inclination
43.0010°
Eccentricity
0.0001361
Mean motion
15.27595308 rev/d
Perigee alt
482.1 km
Apogee alt
483.9 km
Semi-major
6,861.1 km
B*
4.1105e-4
RAAN
309.8987°
Arg perigee
272.0891°
Mean anomaly
87.9805°
Rev number
6,755

§ Raw data

STARLINK-336711 63320U 25057P   26144.88624153  .00011071  00000+0  41105-3 0  99902 63320  43.0010 309.8987 0001361 272.0891  87.9805 15.27595308 67553

JSON: /api/v1/satellites/63320 · /tle

For live sub-satellite position, see the globe view (requires WebGL).

§ Visibility from observer

Set your observer location to see the next 7 days of passes ≥ 10°. The values pass through the URL so the page stays shareable.

No JS? Fill the form by hand. The geolocation button needs JavaScript.